Weather History for Greenville Downtown, SC

Change the Weather History Date:

Sunday, October 6, 2013

  Actual Average Record
Temperature  
Mean Temperature 73 °F -  
Max Temperature 84 °F 71 °F 84 °F (1997)
Min Temperature 64 °F 54 °F 45 °F (2010)
Cooling Degree Days 8    
Growing Degree Days 23 (Base 50)    
Moisture  
Dew Point 62 °F    
Average Humidity 68    
Maximum Humidity 87    
Minimum Humidity 46    
Precipitation  
Precipitation 0.00 in - - ()
Sea Level Pressure  
Sea Level Pressure 29.98 in    
Wind  
Wind Speed 3 mph (SSE)    
Max Wind Speed 10 mph    
Max Gust Speed -    
Visibility 10 miles    
Events      
Averages and records for this station are not official NWS values.
T = Trace of Precipitation, MM = Missing Value Source: NWS Daily Summary

Daily Weather History Graph

Daily Weather History Graph

Search for Another Location

Airport:

Trip Planner

Search our weather history database for the weather conditions in past years. The results will help you decide how hot, cold, wet, or windy it might be!

Date:

Astronomy

Oct. 06, 2013 Rise Set
Actual Time 7:28 AM EDT 7:06 PM EDT
Civil Twilight 7:02 AM EDT 7:31 PM EDT
Nautical Twilight 6:33 AM EDT 8:00 PM EDT
Astronomical Twilight 6:04 AM EDT 8:29 PM EDT
Moon 9:05 AM EDT (10/6) 8:10 PM EDT (10/6)
Length of Visible Light 12h 28m
Length of Day
11h 37m
Waxing Crescent, 3% of the Moon is Illuminated
Oct 6
Waxing Crescent
Oct 11
First Quarter
Oct 18
Full
Oct 26
Last Quarter
Nov 3
New

Hourly Weather History & Observations

Time (EDT) Temp. Heat Index Dew Point Humidity Pressure Visibility Wind Dir Wind Speed Gust Speed Precip Events Conditions
12:53 AM 70.0 °F - 63.0 °F 78% 30.05 in 10.0 mi Calm Calm - N/A   Clear
1:53 AM 68.0 °F - 62.1 °F 81% 30.03 in 10.0 mi Calm Calm - N/A   Clear
2:53 AM 68.0 °F - 61.0 °F 78% 30.02 in 10.0 mi East 3.5 mph - N/A   Clear
3:53 AM 66.0 °F - 62.1 °F 87% 30.01 in 10.0 mi North 3.5 mph - N/A   Clear
4:53 AM 66.0 °F - 62.1 °F 87% 30.01 in 10.0 mi Calm Calm - N/A   Clear
5:53 AM 64.9 °F - 61.0 °F 87% 30.02 in 10.0 mi Calm Calm - N/A   Clear
6:53 AM 64.9 °F - 60.1 °F 84% 30.03 in 10.0 mi Calm Calm - N/A   Scattered Clouds
7:53 AM 66.9 °F - 62.1 °F 84% 30.04 in 10.0 mi Calm Calm - N/A   Mostly Cloudy
8:53 AM 66.9 °F - 63.0 °F 87% 30.05 in 9.0 mi Calm Calm - N/A   Partly Cloudy
9:53 AM 72.0 °F - 63.0 °F 73% 30.05 in 10.0 mi SW 4.6 mph - N/A   Clear
10:53 AM 78.1 °F - 62.1 °F 58% 30.04 in 10.0 mi SW 4.6 mph - N/A   Clear
11:53 AM 79.0 °F - 63.0 °F 58% 30.02 in 10.0 mi SSW 4.6 mph - N/A   Clear
12:53 PM 80.1 °F 81.2 °F 62.1 °F 54% 30.00 in 10.0 mi South 9.2 mph - N/A   Scattered Clouds
1:53 PM 82.9 °F 83.2 °F 60.1 °F 46% 29.98 in 10.0 mi South 8.1 mph - N/A   Partly Cloudy
2:53 PM 82.9 °F 83.3 °F 61.0 °F 47% 29.95 in 10.0 mi SSE 8.1 mph - N/A   Scattered Clouds
3:53 PM 82.9 °F 83.2 °F 60.1 °F 46% 29.94 in 10.0 mi South 10.4 mph - N/A   Scattered Clouds
4:53 PM 80.1 °F 80.9 °F 60.1 °F 50% 29.93 in 10.0 mi SE 5.8 mph - N/A   Scattered Clouds
5:53 PM 79.0 °F - 61.0 °F 54% 29.92 in 10.0 mi South 5.8 mph - N/A   Scattered Clouds
6:53 PM 77.0 °F - 62.1 °F 60% 29.92 in 10.0 mi SSE 3.5 mph - N/A   Clear
7:53 PM 75.9 °F - 62.1 °F 62% 29.92 in 10.0 mi ESE 3.5 mph - N/A   Clear
8:53 PM 75.0 °F - 62.1 °F 64% 29.91 in 10.0 mi ESE 4.6 mph - N/A   Partly Cloudy
9:53 PM 73.9 °F - 63.0 °F 68% 29.92 in 10.0 mi Calm Calm - N/A   Mostly Cloudy
10:53 PM 73.9 °F - 63.0 °F 68% 29.90 in 10.0 mi Calm Calm - N/A   Overcast
11:53 PM 73.0 °F - 64.0 °F 73% 29.88 in 10.0 mi SE 5.8 mph - 0.00 in   Overcast